Location: ????????
(55.3939°N, 37.4780°E)
Time: 05:43:04
(UTC+00:00)

Cosmos 1331 Rocket - Pass Details

Date: 14 April 2026
Orbit: 745 x 772 km, 74.0° (Epoch: 10 May)

Event Time Altitude Azimuth Distance (km) Brightness Sun altitude
Exits shadow 23:41:53 36° 234° (SW) 1,202 4.5 -19.4°
Maximum altitude 23:43:55 64° 302° (WNW) 857 4.2 -19.2°
Drops below altitude 10° 23:49:10 10° 24° (NNE) 2,323 7.7 -18.8°
Sets 23:51:35 0° 28° (NNE) 3,250 8.9 -18.5°
